Location: La Plant
(45.1447°N, 100.6515°W)
Time: 16:22:34
(UTC+00:00)

ISS - Visible Passes

Search period start: 23 June 2021 00:00
Search period end: 03 July 2021 00:00
Orbit: 417 x 422 km, 51.6° (Epoch: 22 June)

Date Brightness Start Highest point End Pass type
(mag) Time Alt. Az. Time Alt. Az. Time Alt. Az.
27 Jun -1.9 09:58:39 10° S 10:01:18 22° SE 10:03:57 10° E visible
28 Jun -1.4 09:12:44 11° SSE 09:14:03 14° SE 09:15:49 10° E visible
29 Jun -3.4 10:00:01 12° SW 10:03:00 55° SE 10:06:19 10° ENE visible
30 Jun -2.8 09:14:18 24° S 09:15:38 34° SE 09:18:44 10° ENE visible
01 Jul -2.1 08:28:31 22° SE 08:28:31 22° SE 08:31:00 10° E visible
01 Jul -3.4 10:01:33 10° WSW 10:04:54 63° NNW 10:08:15 10° ENE visible
02 Jul -1.0 07:42:42 11° ESE 07:42:42 11° ESE 07:42:52 10° E visible
02 Jul -3.8 09:15:39 26° WSW 09:17:26 88° SSE 09:20:49 10° ENE visible
